Location: Ecklingerode
(51.5036°N, 10.3122°E)
Time: 07:46:46
(UTC+00:00)

SeaSat 1 - Pass Details

Date: 29 October 2020
Orbit: 744 x 747 km, 108.0° (Epoch: 01 December)

Event Time Altitude Azimuth Distance (km) Brightness Sun altitude
Exits shadow 18:00:36 40° 101° (E) 1,088 2.8 -19.8°
Maximum altitude 18:01:57 53° 52° (NE) 914 2.6 -20.0°
Drops below altitude 10° 18:06:46 10° 336° (NNW) 2,276 5.3 -20.7°
Sets 18:09:04 0° 332° (NNW) 3,204 6.2 -21.1°
